Location: Crocus Hill
(18.2167°N, 63.0667°W)
Time: 14:59:26
(UTC+00:00)

METEOR-M - Pass Details

Date: 26 January 2020
Orbit: 816 x 820 km, 98.4° (Epoch: 23 February)

Event Time Altitude Azimuth Distance (km) Brightness Sun altitude
Rises 09:04:18 0° 15° (NNE) 3,340 7.3 -24.2°
Reaches altitude 10° 09:06:39 10° 18° (NNE) 2,406 6.6 -23.6°
Maximum altitude 09:11:58 71° 102° (ESE) 859 4.3 -22.4°
Drops below altitude 10° 09:17:15 10° 186° (S) 2,398 6.6 -21.2°
Sets 09:19:36 0° 188° (S) 3,328 7.4 -20.7°
